TFFFTNCM

Guest
Details From TFFF - Martinique/Aime Cesaire Intl
To TNCM - St Maarten - Princess Juliana Intl
Flight Number -
Tags generated
Created
Modified
Stats Distance 245 nm / 454 km
Max Altitude 28,900 ft / 8,809 m
Waypoints 4
Social Downloads 21
Likes 0
Share

Download

Looking for another format? Having issues loading an existing format? Contact us
Advertisement - Login to hide

Notes

Basic altitude profile: - Ascent Rate: 2500ft/min - Ascent Speed: 250kts - Cruise Altitude: 8000ft - Cruise Speed: 420kts - Descent Rate: 1500ft/min - Descent Speed: 250kts Options: - Use NATs: yes - Use PACOTS: yes - Use low airways: yes - Use high airways: yes

Route

TFFF PPR A517 BIMBO TNCM

ID Type Via Altitude (ft/m) Position (lat/lon) Dist (leg/tot) Name
O TFFF APT - 0 / 0 14.59103 / -61.00317 - / 0 nm Martinique/Aime Cesaire Intl
PPR DME - 28,900 / 8,809 16.26519 / -61.54014 105 / 105 nm POINTE A PITRE VOR-DME
BIMBO FIX A517 (AWY-LO) 22,000 / 6,706 16.62667 / -61.96028 32 / 137 nm
O TNCM APT - 0 / 0 18.04089 / -63.10897 107 / 245 nm St Maarten - Princess Juliana Intl

Altitude Profile

Advertisement - Login to hide

Weather


0- 5 10 15 20 25 30 35+ Temperature / °C

Clouds and Precipitation
Forecast for 2024-02-27 18:00 UTC. Updated 5 hours ago

Ground ~20,000 ft ~40,000 ft Winds

TFFF

Details ICAO TFFF (FDF)
Name Martinique Aime Cesaire Intl
Region France (Guadeloupe, Martinique, Saint Barthélemy, Saint Martin)
Timezone America/Martinique (UTC-4.0)
Stats Elevation 16 ft / 5 m (AMSL)
Location 14.590800° -61.004600°
Runways 1
Magnetic Variation 15.248° W

METAR

TFFF 272030Z AUTO 11014KT 9999 SCT036 SCT044 BKN078 29/20 Q1014 TEMPO 4000 SHRA BKN020TCU

Decode

TAF

TAF TFFF 271700Z 2718/2818 10015KT 9999 SCT035 TEMPO 2722/2812 10005KT PROB30 TEMPO 2722/2803 4000 SHRA BKN020TCU PROB40 TEMPO 2815/2818 3000 SHRA BKN018TCU

Decode

Departure Runways

ID Width Length Bearing (true/mag) Surface Threshold Overrun Markings Lighting
10 148 ft / 45 m 9,852 ft / 3,003 m 79.94° / 95.19° ASPHALT 0 ft / 0 m 52 ft / 16 m PREC-APP EDGE THRESHOLD ALSF-II REIL-OMNI
28 148 ft / 45 m 9,852 ft / 3,003 m 259.95° / 275.20° ASPHALT 817 ft / 249 m 994 ft / 303 m PREC-APP EDGE THRESHOLD ALSF-II REIL-OMNI

TNCM

Details ICAO TNCM (SXM)
Name Princess Juliana Intl
Region Caribbean Netherlands, Aruba, Curaçao, Sint Maarten
Timezone Unknown
Stats Elevation 14 ft / 4 m (AMSL)
Location 18.040900° -63.108900°
Runways 1
Magnetic Variation 14.495° W

METAR

TNCM 272000Z 06010KT 030V090 9999 -SHRA BKN016 27/23 Q1017 RERA TEMPO SHRA

Decode

TAF

TAF TNCM 271800Z 2718/2818 07009KT 9999 SCT018 TEMPO 2719/2722 8000 SHRA SCT016 BKN032

Decode

Destination Runways

ID Width Length Bearing (true/mag) Surface Threshold Overrun Markings Lighting
10 148 ft / 45 m 7,553 ft / 2,302 m 81.44° / 95.93° ASPHALT 331 ft / 101 m 164 ft / 50 m PREC-APP EDGE THRESHOLD REIL-OMNI
28 148 ft / 45 m 7,553 ft / 2,302 m 261.45° / 275.94° ASPHALT 0 ft / 0 m 200 ft / 61 m APP EDGE THRESHOLD

Popular Alternatives